Location: Unspecified
(0.0000°N, 0.0000°E)
Time: 12:31:11
(UTC+00:00)

Envisat - Pass Details

Date: 02 October 2022
Orbit: 763 x 765 km, 98.2° (Epoch: 08 December)

Event Time Altitude Azimuth Distance (km) Brightness Sun altitude
Rises 04:47:50 0° 345° (NNW) 3,215 6.0 -15.4°
Reaches altitude 10° 04:50:42 10° 328° (NNW) 2,292 5.1 -14.7°
Maximum altitude 04:54:18 20° 282° (WNW) 1,713 4.2 -13.8°
Enters shadow 04:54:52 20° 273° (W) 1,730 4.2 -13.6°
Exits shadow 04:59:47 - 224° (SW) 2,875 5.6 -12.4°
Sets 05:00:49 0° 219° (SW) 3,227 5.9 -12.1°
